Change the Weather History Date:

Monday, December 31, 2012

  Actual Average Record
Temperature  
Mean Temperature 58 °F -  
Max Temperature 73 °F 70 °F 86 °F (1999)
Min Temperature 44 °F 44 °F 41 °F (2000)
Degree Days  
Heating Degree Days 6    
Growing Degree Days 8 (Base 50)    
Moisture  
Dew Point 45 °F    
Average Humidity 61    
Maximum Humidity 87    
Minimum Humidity 31    
Precipitation  
Precipitation 0.00 in 0.00 in - ()
Sea Level Pressure  
Sea Level Pressure 30.05 in    
Wind  
Wind Speed 1 mph ()    
Max Wind Speed 4 mph    
Max Gust Speed -    
Visibility 6.0 miles    
Events      
Averages and records for this station are not official NWS values.
T = Trace of Precipitation, MM = Missing Value Source: Averaged Metar Reports

Daily Weather History Graph

Daily Weather History Graph

Search for Another Location

Airport or City:

Trip Planner

Search our weather history database for the weather conditions in past years. The results will help you decide how hot, cold, wet, or windy it might be!

Date:

Astronomy

Dec. 31, 2012 Rise Set
Actual Time 6:35 AM EET 5:09 PM EET
Civil Twilight 6:10 AM EET 5:34 PM EET
Nautical Twilight 5:41 AM EET 6:03 PM EET
Astronomical Twilight 5:13 AM EET 6:31 PM EET
Moon 8:00 PM EET (12/31) 8:23 AM EET (12/31)
Length of Visible Light 11h 24m
Length of Day
10h 34m
Waning Gibbous, 92% of the Moon is Illuminated
Dec 31
Waning Gibbous
Jan 5
Last Quarter
Jan 11
New
Jan 19
First Quarter
Jan 27
Full

Hourly Weather History & Observations

Time (EET) Temp. Dew Point Humidity Pressure Visibility Wind Dir Wind Speed Gust Speed Precip Events Conditions
12:00 AM 53.6 °F 46.4 °F 77% 30.06 in - Calm Calm - N/A   Clear
1:00 AM 53.6 °F 44.6 °F 72% 30.06 in - SSE 3.5 mph - N/A   Clear
2:00 AM 52 °F 44 °F 66% 30.07 in 6 mi SSE 2.3 mph - -  
2:00 AM 51.8 °F 42.8 °F 71% 30.06 in - SSE 2.3 mph - N/A   Clear
3:00 AM 51.8 °F 44.6 °F 76% 30.06 in - South 2.3 mph - N/A   Clear
4:00 AM 50.0 °F 42.8 °F 76% 30.06 in - Calm Calm - N/A   Clear
5:00 AM 48.2 °F 41.0 °F 76% 30.04 in - Calm Calm - N/A   Clear
6:00 AM 46.4 °F 41.0 °F 81% 30.06 in - Calm Calm - N/A   Clear
7:00 AM 44.6 °F 41.0 °F 87% 30.06 in - Calm Calm - N/A   Clear
8:00 AM 49 °F 42 °F 69% 30.09 in 6 mi Calm Calm - -  
8:00 AM 50.0 °F 42.8 °F 76% 30.06 in - Calm Calm - N/A   Clear
9:00 AM 59.0 °F 46.4 °F 63% 30.09 in - Calm Calm - N/A   Clear
10:00 AM 62.6 °F 46.4 °F 55% 30.09 in - Calm Calm - N/A   Clear
11:00 AM 64.4 °F 48.2 °F 56% 30.09 in - SE 2.3 mph - N/A   Clear
12:00 PM 69.8 °F 50.0 °F 49% 30.06 in - Calm Calm - N/A   Clear
1:00 PM 71.6 °F 50.0 °F 46% 30.04 in - NNW 2.3 mph - N/A   Clear
2:00 PM 73 °F 49 °F 31% 30.01 in 6 mi North 2.3 mph - -  
2:00 PM 73.4 °F 48.2 °F 41% 30.01 in - North 2.3 mph - N/A   Clear
3:00 PM 73.4 °F 48.2 °F 41% 30.01 in - NW 3.5 mph - N/A   Clear
4:00 PM 71.6 °F 44.6 °F 38% 30.01 in - North 2.3 mph - N/A   Clear
5:00 PM 69.8 °F 42.8 °F 38% 30.01 in - Calm Calm - N/A   Clear
6:00 PM 66.2 °F 44.6 °F 46% 30.01 in - Calm Calm - N/A   Clear
7:00 PM 62.6 °F 46.4 °F 55% 30.01 in - Calm Calm - N/A   Clear
8:00 PM 60 °F 47 °F 53% 30.04 in 6 mi Calm Calm - -  
8:00 PM 59.0 °F 48.2 °F 67% 30.04 in - Calm Calm - N/A   Clear
9:00 PM 59.0 °F 44.6 °F 59% 30.04 in - South 2.3 mph - N/A   Clear
10:00 PM 57.2 °F 48.2 °F 72% 30.04 in - South 2.3 mph - N/A   Clear
11:00 PM 57.2 °F 46.4 °F 67% 30.04 in - South 1.2 mph - N/A   Clear